World > North America > United States > Mississippi > Calhoun City  

Calhoun City, MS Hourly Weather Updates

Feedback E-mail the Weather

Quick Clicks

Calhoun City, MS Weather Maps

°F °C°F °C
Calhoun City Weather Map
UTC Time: 4/15/2024, 15:15
Your Time:

Calhoun City, MS Regional Weather

Expires:202404151600;;785381
ASUS44 KJAN 151510
RWRMS 

MISSISSIPPI HOURLY WEATHER ROUNDUP
NATIONAL WEATHER SERVICE JACKSON MS
1000 AM CDT MON APR 15 2024

NOTE: "FAIR: INDICATES FEW OR NO CLOUDS BELOW 12,000 FEET WITH NO
SIGNIFICANT WEATHER AND/OR OBSTRUCTIONS TO VISIBILITY.


MSZ003>006-009-014>017-022>024-029>033-037>039-151600-
NORTHEAST MISSISSIPPI
  
CITY           SKY/WX    TMP DP  RH WIND       PRES   REMARKS
ABERDEEN       MOSUNNY   72  64  78 SW8       30.09S                  
COLUMBUS AFB   MOSUNNY   70  60  71 S6        30.04S                  
CORINTH        MOSUNNY   72  61  68 S9G16     30.04S                  
GOLDN TRIANGLE MOSUNNY   71  63  75 S7        30.09S                  
IUKA             N/A     72  62  71 VRB5      30.05S                  
LOUISVILLE     MOSUNNY   70  63  78 SW6       30.11S                  
STARKVILLE     MOSUNNY   72  64  78 SW5G12    30.06S                  
TUPELO         MOSUNNY   74  62  66 S9        30.05S                  
$$


SKY/WX - Weather  TMP - Temperature  DP - Dew Point  RH - Humidity
WIND - Wind Direction/Speed PRES - Barometric Pressure VSB - Visibility
WCI - Wind Chill Index E13G22 Wind - East Wind 13 mph/Gusts of 22 mph

Trending Headlines

Trending Entertainment Headlines

Calhoun City Radar Loop

Use the map search tool if you want to place a location marker on the radar map...

Calhoun City Quick Facts

National Two Day Weather Forecast


E-mail the Calhoun City Weather Forecast

Voice your opinion or tell us about page issues...